This is the latest recevied weather packets stored in our database for station/object DO6MJ-1. If no packets are shown the sender has not sent any weather packets the latest 10 day(s).
| Time | Temp. | Humidity | Pressure | Rain* | Wind** | Luminosity | Snow |
|---|---|---|---|---|---|---|---|
| 1777896166 | 22.78° C | 55% | 1005.3 hPa | 0 mm | - | - | - |
| 1777894966 | 22.78° C | 55% | 1005.3 hPa | 0 mm | - | - | - |
| 1777893766 | 21.11° C | 59% | 1005.3 hPa | 0 mm | - | - | - |
| 1777892566 | 22.22° C | 56% | 1005.6 hPa | 0 mm | - | - | - |
| 1777891365 | 23.33° C | 51% | 1005.7 hPa | 0 mm | - | - | - |
| 1777890165 | 25° C | 49% | 1005.6 hPa | 0 mm | - | - | - |
| 1777888965 | 25.56° C | 51% | 1005.5 hPa | 0 mm | - | - | - |
| 1777887764 | 23.89° C | 56% | 1005.7 hPa | 0 mm | - | - | - |
| 1777886564 | 22.78° C | 58% | 1006.2 hPa | 0 mm | - | - | - |
| 1777885364 | 22.78° C | 60% | 1006.2 hPa | 0 mm | - | - | - |
| 1777884164 | 20.56° C | 63% | 1006.1 hPa | 0 mm | - | - | - |
| 1777882963 | 21.11° C | 62% | 1006.1 hPa | 0 mm | - | - | - |
| 1777881763 | 20.56° C | 64% | 1006 hPa | 0 mm | - | - | - |
| 1777880563 | 20.56° C | 65% | 1005.9 hPa | 0 mm | - | - | - |
| 1777879363 | 19.44° C | 71% | 1005.8 hPa | 0 mm | - | - | - |
| 1777878162 | 18.33° C | 72% | 1005.5 hPa | 0 mm | - | - | - |
| 1777876962 | 17.78° C | 74% | 1005.2 hPa | 0 mm | - | - | - |
| 1777875761 | 17.22° C | 74% | 1004.9 hPa | 0 mm | - | - | - |
| 1777874561 | 17.22° C | 75% | 1004.8 hPa | 0 mm | - | - | - |
| 1777873361 | 16.67° C | 76% | 1004.7 hPa | 0 mm | - | - | - |
| 1777872161 | 16.11° C | 77% | 1004.9 hPa | 0 mm | - | - | - |
| 1777870960 | 16.11° C | 76% | 1004.7 hPa | 0 mm | - | - | - |
| 1777869760 | 16.11° C | 75% | 1004.4 hPa | 0 mm | - | - | - |
| 1777868560 | 16.11° C | 74% | 1004.2 hPa | 0 mm | - | - | - |
| 1777867360 | 16.11° C | 72% | 1004.3 hPa | 0 mm | - | - | - |
* Rain latest hour (hover to see other rain measurements)
** Current wind speed in m/s (hover to see current wind gust speed)